Location: Hýskov
(49.9902°N, 14.0498°E)
Time: 23:39:14
(UTC+00:00)

Daily predictions for brighter satellites

Satellite Brightness Start Highest point End
(mag) Time Altitude Azimuth Time Altitude Azimuth Time Altitude Azimuth
Cosmos 1452 Rocket 4.0 19:47:45 10° NNW 19:52:56 60° WSW 19:58:05 10° S
SL-16 R/B 3.1 19:48:16 10° NNW 19:53:34 39° NE 19:58:51 10° ESE
Helios 1A 2.8 19:50:33 10° NNE 19:54:31 76° ESE 19:58:27 10° S
Cosmos 1727 Rocket 4.1 19:48:44 10° S 19:54:46 59° E 20:00:50 10° NNE
CZ-4 R/B 4.1 19:58:24 10° WSW 20:00:08 13° W 20:01:52 10° WNW
IRS-1C Rocket 4.2 19:55:14 10° SSE 20:00:26 67° ENE 20:05:40 10° N
Cosmos 2227 Rocket 2.7 19:55:20 10° S 20:00:32 39° ESE 20:05:46 10° NE
COSMOS 2455 3.0 19:54:43 10° NW 20:00:48 85° SW 20:06:49 10° SSE
Terra 2.1 19:56:08 10° S 20:00:49 69° WSW 20:05:32 10° NNW
Cosmos 2100 Rocket 4.2 19:55:38 10° N 20:01:47 61° ENE 20:07:51 10° SSE
SPOT 5 4.4 19:58:18 10° SSW 20:02:21 32° W 20:06:38 10° NNW
PSLV R/B 4.2 20:00:30 10° SE 20:03:33 37° ENE 20:06:39 10° N
USA 276 2.9 20:03:53 10° WSW 20:05:25 19° SSW 20:07:03 10° SSE
Cosmos 2263 Rocket 3.4 20:01:10 10° SSE 20:05:32 23° ESE 20:09:54 10° NE
RESURS DK-1 3.5 20:05:00 10° SSE 20:08:14 24° ESE 20:11:30 10° NE
Cosmos 1980 4.2 20:03:38 10° NW 20:09:13 59° WSW 20:14:43 10° S
Cosmos 1300 4.1 20:06:40 10° NNW 20:09:26 28° W 20:12:11 10° SSW
Okean O Rocket 3.0 20:09:30 10° SSW 20:13:27 35° W 20:17:24 10° NNW
Spot 2 Rocket 3.6 20:08:56 10° S 20:14:00 78° WSW 20:19:07 10° NNW
Helios 1B rocket 4.4 20:15:21 10° SW 20:18:14 21° W 20:21:08 10° NW
ERS-1 Rocket 4.1 20:19:41 10° SSW 20:24:21 39° W 20:29:05 10° NNW
Cosmos 1437 Rocket 3.3 20:21:20 10° SSE 20:24:34 35° E 20:27:52 10° NNE
Cosmos 921 Rocket 2.9 20:20:36 10° SSW 20:24:50 74° ESE 20:29:11 10° NNE
Cosmos 2219 4.2 20:21:11 10° SSE 20:26:01 29° ESE 20:30:53 10° NE
SL-14 R/B 3.4 20:28:55 10° SSW 20:32:50 78° W 20:36:46 10° N
Cosmos 2123 Rocket 4.1 20:27:36 10° S 20:33:45 61° E 20:39:55 10° NNE
SL-8 R/B 3.7 20:35:30 10° W 20:40:14 63° SSW 20:44:57 10° ESE
USA 290 3.8 20:41:32 15° SE 20:42:49 19° ESE 20:45:09 10° NE
Cosmos 2237 Rocket 3.4 20:37:42 10° NW 20:42:51 36° WSW 20:47:58 10° S
Cosmos 1459 Rocket 4.2 20:36:33 10° NNW 20:42:53 79° W 20:49:15 10° S
Cosmos 1809 Rocket 4.5 20:39:24 10° S 20:45:33 79° E 20:51:42 10° NNE
ARIANE 5 R/B 4.4 20:43:44 10° ESE 20:47:05 21° ENE 20:50:28 10° NNE
Cosmos 1802 Rocket 4.1 20:41:22 10° N 20:47:51 89° ENE 20:53:56 12° S
Meteor 1-15 Rocket 4.3 20:42:12 10° NNW 20:47:52 84° W 20:53:03 12° S
Meteor 2-14 Rocket 4.5 20:42:05 10° S 20:48:13 78° E 20:54:22 10° NNE
SL-4 R/B 3.4 20:47:40 14° SSE 20:49:18 18° SE 20:52:03 10° E
Cosmos 2061 Rocket 4.3 20:43:14 10° N 20:49:27 57° ENE 20:54:39 15° SSE
USA 305 2.3 20:48:29 10° SW 20:52:19 67° SSE 20:55:34 10° ENE
Cosmos 1953 2.7 20:50:02 10° N 20:53:38 44° ENE 20:56:11 17° SE
SL-08 R/B 4.5 20:50:23 10° N 20:56:30 77° E 21:01:43 15° SSE
Lacrosse 4 Rocket 2.2 20:56:59 10° NW 21:00:59 42° WSW 21:04:06 15° S
NOSS 3-4 (A) 4.0 20:58:09 10° WSW 21:03:30 56° NW 21:09:30 10° NE
NOSS 3-4 (C) 4.0 20:58:15 10° WSW 21:03:36 57° NW 21:09:36 10° NE
DNEPR-1 R/B 4.2 20:59:50 10° SSW 21:05:42 57° SE 21:10:35 10° NE
Cosmos 1818 3.8 21:01:00 10° SW 21:06:27 73° NW 21:11:56 10° NE
Cosmos 2016 Rocket 4.1 21:00:40 10° NNW 21:07:00 81° W 21:12:39 14° S
Cosmos 1455 4.4 21:09:44 10° WNW 21:10:27 11° W 21:11:10 10° WSW
Meteor 2-21 4.5 21:05:14 10° S 21:11:25 90° W 21:17:35 10° N
Cosmos 1892 4.2 21:10:55 14° ESE 21:11:39 15° E 21:13:25 10° NE
Ariane Rocket 4.0 21:10:03 10° SSW 21:14:48 40° W 21:19:36 10° NNW
Cosmos 1844 Rocket 4.3 21:13:12 14° SE 21:15:31 18° E 21:19:10 10° ENE
Cosmos 2297 Rocket 3.9 21:10:56 10° WSW 21:16:07 36° NW 21:21:21 10° NNE
USA 59 Rocket 2.0 21:14:19 10° NNW 21:16:41 18° NNE 21:19:24 10° ENE
CZ-4C R/B 3.9 21:14:16 10° NE 21:17:12 30° E 21:18:25 23° SE
Cosmos 2228 Rocket 4.3 21:17:10 18° SE 21:19:29 27° E 21:23:14 10° NNE
GP-B 3.1 21:16:17 10° N 21:20:42 87° W 21:24:00 17° S
Cosmos 1269 Rocket 4.0 21:20:31 12° SSW 21:25:25 72° ESE 21:30:42 10° NNE
Cosmos 2084 Rocket 4.4 21:23:11 10° WNW 21:26:55 33° WSW 21:29:07 19° S
ATLAS CENTAUR R/B 3.2 21:26:35 10° WNW 21:29:04 17° WSW 21:31:05 12° SSW
Cosmos 1707 Rocket 4.3 21:28:01 21° SE 21:30:14 37° E 21:34:12 10° NNE
Cosmos 540 Rocket 4.4 21:26:06 10° NNW 21:30:56 40° ENE 21:34:50 15° ESE
Cosmos 1933 Rocket 4.5 21:27:08 10° NNW 21:31:17 42° W 21:34:40 14° SSW
IRIDIUM 103 4.4 21:33:33 21° SSE 21:37:04 66° E 21:42:15 10° N
SL-16 R/B 2.9 21:32:25 10° NW 21:37:45 44° WSW 21:41:38 18° S
ALOS 2 3.7 21:37:03 17° ESE 21:39:53 34° ENE 21:43:52 10° N
ATLAS 2AS CENTAUR R/B 4.4 21:37:43 13° SE 21:40:01 15° ESE 21:43:42 10° ENE
DELTA 2 DEB (DPAF) 3.9 21:37:40 10° N 21:41:35 73° WNW 21:44:30 17° SSW
Cosmos 2344 4.0 21:34:20 10° NW 21:42:17 84° NE 21:52:06 13° SE
Cosmos 1733 Rocket 3.1 21:38:10 10° N 21:42:33 69° ENE 21:45:01 25° SSE
Cosmos 2227 Rocket 3.4 21:39:12 10° WSW 21:44:33 42° NW 21:49:57 10° NNE
Cosmos 2233 Rocket 4.4 21:38:27 10° NNW 21:44:40 61° W 21:49:37 16° SSW
RESURS DK-1 3.6 21:41:43 10° SW 21:45:32 41° NW 21:49:21 10° NNE
Cosmos 1869 Rocket 4.3 21:41:25 10° NNW 21:45:37 45° W 21:48:34 18° SSW
Cosmos 2263 Rocket 2.5 21:43:16 10° SW 21:48:55 69° WNW 21:54:38 10° NNE
Okean 2 3.2 21:50:02 23° SSW 21:52:22 82° W 21:56:18 10° N
CZ-2C R/B 3.8 21:48:52 10° NNE 21:53:23 64° ESE 21:56:00 25° S
Okean 3 3.4 21:50:57 22° SSW 21:53:30 82° W 21:57:37 10° N
IRIDIUM 106 4.3 21:51:50 21° S 21:55:21 89° WNW 22:00:37 10° N
Aureole 3 Rocket 2.8 21:52:41 10° N 21:55:46 52° ENE 21:57:13 29° SE
ASTEX 1 3.4 21:54:19 10° N 21:59:19 84° E 22:02:22 24° S
Cosmos 1943 3.2 21:53:47 10° NNW 21:59:31 78° WSW 22:03:04 24° SSE
SeaSat 1 3.6 21:57:55 11° ESE 22:02:13 39° NE 22:06:46 10° NNW
Cosmos 1763 Rocket 3.4 22:04:16 10° NNW 22:09:28 88° WSW 22:12:23 26° SSE
Cosmos 2219 3.8 22:04:12 10° SW 22:09:50 57° NW 22:15:32 10° NNE
MetOp-A 3.9 22:10:28 26° S 22:13:08 66° WSW 22:17:40 10° NNW
Cosmos 1862 Rocket 3.5 22:11:30 26° SSW 22:14:00 85° W 22:18:26 10° N
USA 290 4.0 22:14:13 10° WSW 22:17:00 30° WNW 22:19:53 10° N
Cosmos 1603 3.7 22:11:24 10° NNW 22:17:03 82° ENE 22:20:41 23° SSE
Cosmos 1271 Rocket 3.4 22:16:29 30° SE 22:17:32 37° E 22:20:54 10° NNE
Cosmos 2082 4.2 22:13:37 10° SW 22:19:17 62° WNW 22:24:59 10° NNE
Cosmos 2292 Rocket 3.6 22:18:12 25° SW 22:19:27 40° WNW 22:22:13 10° N
USA 305 3.4 22:17:37 10° W 22:21:02 41° NNW 22:23:40 10° ENE
Okean 1-7 2.8 22:19:41 31° S 22:21:37 80° E 22:25:46 10° NNE
ARIANE 5 R/B 3.0 22:20:49 26° SSW 22:23:04 54° W 22:27:28 10° NNW
SL-4 R/B 1.9 22:22:42 10° SW 22:26:46 62° SSE 22:30:43 10° ENE
Cosmos 1953 4.5 22:26:09 10° NW 22:28:33 16° W 22:30:44 11° WSW
Cosmos 1140 Rocket 4.3 22:26:49 10° SW 22:31:47 48° WNW 22:36:46 10° NNE
Spot 4 4.0 22:30:33 27° S 22:33:03 62° WSW 22:37:52 10° NNW
NOSS 2-1 (C) 3.8 22:32:03 10° NW 22:35:23 54° NE 22:38:47 15° ESE
PSLV R/B 3.8 22:32:17 10° NNE 22:36:32 59° E 22:38:27 31° SSE
Cosmos 1703 4.3 22:34:57 19° SW 22:36:50 34° WNW 22:40:03 10° N
Cosmos 2227 4.1 22:33:33 21° SSW 22:37:27 86° ESE 22:43:06 10° NNE
NOSS 3-1 (C) 4.2 22:30:38 10° NW 22:37:40 60° SW 22:43:29 22° SSE
NOSS 2-1 (E) 3.9 22:35:36 10° NW 22:38:58 52° NE 22:42:35 14° ESE
SJ 16-02 2.6 22:38:57 22° SE 22:40:20 26° E 22:43:57 10° NE
Cosmos 1300 Rocket 4.2 22:37:03 10° N 22:41:21 48° ENE 22:43:39 25° SE
Cosmos 1892 3.6 22:43:00 22° WSW 22:44:12 29° WNW 22:46:55 10° N
PSLV R/B 4.4 22:40:56 10° NNE 22:44:42 43° E 22:46:02 31° SSE
USA 307 2.8 22:54:11 40° S 22:54:54 46° SE 22:58:44 10° ENE
Cosmos 407 Rocket 4.0 22:50:55 16° SW 22:54:56 54° WNW 22:59:58 10° NNE
Cosmos 2228 Rocket 4.3 22:54:32 17° SW 22:57:27 36° WNW 23:01:35 10° N
Cosmos 1844 Rocket 2.7 22:54:47 21° SSW 22:58:38 86° WNW 23:04:21 10° NNE
USA 234 3.8 22:54:47 10° ENE 23:00:47 37° SE 23:03:50 25° S
Cosmos 1703 Rocket 3.5 22:59:23 32° SSW 23:01:22 85° WNW 23:05:41 10° N
Cosmos 1782 Rocket 3.6 22:57:21 10° N 23:01:47 75° E 23:03:54 30° SSE
Cosmos 2251 Rocket 3.7 22:59:05 21° SW 23:02:40 71° WNW 23:08:03 10° NNE
OPS 6432 4.2 22:59:45 10° NW 23:03:00 60° SW 23:03:35 49° S
Cosmos 1844 3.6 22:59:50 23° SSW 23:03:26 88° WNW 23:09:02 10° NNE
USA 59 Rocket -0.3 23:02:24 10° NW 23:05:56 81° SW 23:08:26 25° SE
Cosmos 1954 Rocket 3.9 23:07:46 27° SSW 23:10:44 88° ESE 23:15:59 10° NNE
Cosmos 540 Rocket 4.4 23:07:47 10° NW 23:12:21 34° WSW 23:14:32 24° SW
ATLAS 3B R/B 3.6 23:04:39 10° NW 23:12:29 59° NE 23:20:04 10° ESE
Cosmos 1190 Rocket 4.2 23:12:31 22° SW 23:15:56 70° WNW 23:21:14 10° NNE
Tsikada Rocket 4.0 23:12:12 26° S 23:15:56 84° E 23:22:15 10° N
ALOS 2 3.8 23:14:27 22° SW 23:16:15 30° W 23:20:08 10° NNW
Meteor 1-24 Rocket 3.8 23:13:40 26° S 23:17:16 89° W 23:23:12 10° NNE
Cosmos 1606 2.4 23:19:30 10° N 23:22:32 58° ENE 23:23:21 40° SE
Cosmos 841 Rocket 3.5 23:19:25 10° NNW 23:24:41 72° WSW 23:27:33 27° S
NOSS 3-1 (A) 4.1 23:18:58 10° NW 23:26:02 60° SW 23:32:25 19° SSE
Cosmos 2279 Rocket 4.2 23:20:03 10° N 23:26:15 69° ENE 23:30:32 21° SSE
ATLAS 2AS CENTAUR R/B 2.8 23:25:05 23° SSW 23:29:43 65° SE 23:36:34 10° NE
BREEZE-M DEB (TANK) 3.6 23:28:12 25° SSW 23:30:10 33° SSE 23:32:54 10° E
Meteor 2-5 Rocket 3.9 23:27:46 25° SSW 23:31:24 76° WNW 23:37:23 10° N
H-2A R/B 2.9 23:31:18 22° SE 23:33:19 47° ENE 23:36:50 10° N
Cosmos 2242 Rocket 3.9 23:31:50 28° SSE 23:34:00 58° E 23:38:23 10° NNE
SL-24 R/B - RUBIN 2 4.4 23:31:07 10° NW 23:36:09 56° NE 23:40:38 10° ESE
Cosmos 1833 Rocket 2.9 23:33:27 10° NNW 23:39:05 71° ENE 23:44:08 13° SE
SeaSat 1 3.0 23:37:33 27° SSW 23:39:36 41° WSW 23:44:14 10° NW
Landsat 4 3.7 23:40:02 30° SE 23:41:05 47° ENE 23:43:54 10° N
USA 305 3.7 23:47:16 10° WNW 23:49:55 28° N 23:51:51 10° ENE
CZ-2C R/B 3.4 23:48:59 10° NNE 23:54:24 58° E 23:57:35 23° S
